Location: La Coruña
(43.3623°N, 8.4115°W)
Time: 01:16:04
(UTC+01:00)

STARLINK-1108 - Pass Details

Date: 18 January 2020
Orbit: 348 x 351 km, 53.0° (Epoch: 17 February)

Event Time Altitude Azimuth Distance (km) Brightness Sun altitude
Rises 20:25:28 0° 266° (W) 2,154 8.2 -21.3°
Reaches altitude 10° 20:27:42 10° 281° (W) 1,314 6.6 -21.7°
Enters shadow 20:29:37 22° 319° (NW) 824 4.8 -22.0°
